Location: ??????
(36.0418°N, 43.6351°E)
Time: 21:12:29
(UTC+00:00)

H-2A R/B - Pass Details

Date: 07 March 2021
Orbit: 578 x 654 km, 98.5° (Epoch: 18 April)

Event Time Altitude Azimuth Distance (km) Brightness Sun altitude
Rises 01:23:11 0° 148° (SSE) 2,879 5.7 -25.9°
Reaches altitude 10° 01:25:28 10° 141° (SE) 1,965 4.9 -25.4°
Maximum altitude 01:29:26 39° 72° (ENE) 909 3.4 -24.6°
Drops below altitude 10° 01:33:21 10° 4° (N) 1,935 4.8 -23.8°
Sets 01:35:35 0° 356° (N) 2,830 5.5 -23.4°
